When you browse on this site, cookies collect data to enhance your experience and personalize the content and advertising you see.
Visit our Privacy Policy to learn more. By continuing to use the site, you agree to this use of cookies and data.
  • In Czech Republic
  • List of Countries
  • For 7 days
  • Water Temperature
  • Satellite Maps
  • Weather Map
  • Weather Widgets
  • user-avatar
    Login

    Hourly Weather Kankan

    Today, 16 December, Sunday

    Time Temperature Precipitation Wind Pressure Humidity
    00:00 +21°C° 0 mm 1 mps 686 mmHg 20%
    01:00 +21°C° 0 mm 1 mps 686 mmHg 20%
    02:00 +20°C° 0 mm 1 mps 686 mmHg 20%
    03:00 +20°C° 0 mm 1 mps 686 mmHg 20%
    04:00 +20°C° 0 mm 1 mps 686 mmHg 20%
    05:00 +20°C° 0 mm 1 mps 686 mmHg 21%
    06:00 +20°C° 0 mm 1 mps 686 mmHg 21%
    07:00 +19°C° 0 mm 1 mps 686 mmHg 21%
    08:00 +23°C° 0 mm 1 mps 687 mmHg 18%
    09:00 +26°C° 0 mm 2 mps 688 mmHg 16%
    10:00 +29°C° 0 mm 3 mps 689 mmHg 13%
    11:00 +31°C° 0 mm 3 mps 688 mmHg 12%
    12:00 +33°C° 0 mm 3 mps 688 mmHg 11%
    13:00 +35°C° 0 mm 4 mps 688 mmHg 10%
    14:00 +35°C° 0 mm 4 mps 687 mmHg 10%
    15:00 +35°C° 0 mm 4 mps 687 mmHg 10%
    16:00 +35°C° 0 mm 4 mps 686 mmHg 10%
    17:00 +31°C° 0 mm 3 mps 686 mmHg 12%
    18:00 +29°C° 0 mm 2 mps 686 mmHg 14%
    19:00 +26°C° 0 mm 2 mps 686 mmHg 15%
    20:00 +25°C° 0 mm 2 mps 686 mmHg 16%
    21:00 +24°C° 0 mm 2 mps 687 mmHg 17%
    22:00 +23°C° 0 mm 2 mps 687 mmHg 18%
    23:00 +23°C° 0 mm 2 mps 687 mmHg 19%

    Tomorrow, 17 December, Monday

    Time Temperature Precipitation Wind Pressure Humidity
    00:00 +21°C° 0 mm 2 mps 687 mmHg 19%
    01:00 +20°C° 0 mm 2 mps 687 mmHg 20%
    02:00 +19°C° 0 mm 2 mps 686 mmHg 20%
    03:00 +19°C° 0 mm 2 mps 686 mmHg 21%
    04:00 +18°C° 0 mm 2 mps 686 mmHg 21%
    05:00 +17°C° 0 mm 2 mps 686 mmHg 21%
    06:00 +17°C° 0 mm 2 mps 686 mmHg 21%
    07:00 +17°C° 0 mm 2 mps 686 mmHg 22%
    08:00 +19°C° 0 mm 2 mps 687 mmHg 19%
    09:00 +22°C° 0 mm 3 mps 688 mmHg 16%
    10:00 +26°C° 0 mm 4 mps 689 mmHg 13%
    11:00 +27°C° 0 mm 4 mps 688 mmHg 12%
    12:00 +29°C° 0 mm 4 mps 688 mmHg 11%
    13:00 +32°C° 0 mm 4 mps 688 mmHg 10%
    14:00 +32°C° 0 mm 4 mps 687 mmHg 10%
    15:00 +31°C° 0 mm 3 mps 687 mmHg 10%
    16:00 +31°C° 0 mm 3 mps 686 mmHg 10%
    17:00 +29°C° 0 mm 3 mps 686 mmHg 12%
    18:00 +27°C° 0 mm 2 mps 686 mmHg 14%
    19:00 +24°C° 0 mm 2 mps 686 mmHg 16%
    20:00 +24°C° 0 mm 2 mps 686 mmHg 17%
    21:00 +23°C° 0 mm 2 mps 686 mmHg 18%
    22:00 +21°C° 0 mm 2 mps 687 mmHg 19%
    23:00 +20°C° 0 mm 2 mps 687 mmHg 20%

    Day after tomorrow, 18 December, Tuesday

    Time Temperature Precipitation Wind Pressure Humidity
    00:00 +19°C° 0 mm 2 mps 686 mmHg 21%
    01:00 +18°C° 0 mm 2 mps 686 mmHg 22%
    02:00 +19°C° 0 mm 1 mps 686 mmHg 23%
    03:00 +18°C° 0 mm 1 mps 685 mmHg 24%
    04:00 +18°C° 0 mm 1 mps 685 mmHg 25%
    05:00 +16°C° 0 mm 1 mps 685 mmHg 26%
    06:00 +16°C° 0 mm 1 mps 686 mmHg 26%
    07:00 +16°C° 0 mm 2 mps 686 mmHg 26%
    08:00 +19°C° 0 mm 2 mps 687 mmHg 22%
    09:00 +21°C° 0 mm 2 mps 688 mmHg 19%
    10:00 +25°C° 0 mm 3 mps 689 mmHg 16%
    11:00 +27°C° 0 mm 3 mps 688 mmHg 15%
    12:00 +29°C° 0 mm 3 mps 688 mmHg 13%
    13:00 +31°C° 0 mm 3 mps 687 mmHg 12%
    14:00 +31°C° 0 mm 3 mps 687 mmHg 12%
    15:00 +33°C° 0 mm 3 mps 686 mmHg 12%
    16:00 +33°C° 0 mm 3 mps 685 mmHg 12%
    17:00 +30°C° 0 mm 2 mps 685 mmHg 14%
    18:00 +27°C° 0 mm 2 mps 685 mmHg 17%
    19:00 +25°C° 0 mm 2 mps 685 mmHg 19%
    20:00 +24°C° 0 mm 2 mps 686 mmHg 21%
    21:00 +23°C° 0 mm 2 mps 686 mmHg 22%
    22:00 +21°C° 0 mm 2 mps 687 mmHg 23%
    23:00 +20°C° 0 mm 2 mps 686 mmHg 25%

    19 December, Wednesday

    Time Temperature Precipitation Wind Pressure Humidity
    00:00 +19°C° 0 mm 2 mps 686 mmHg 27%
    01:00 +19°C° 0 mm 2 mps 686 mmHg 28%
    02:00 +19°C° 0 mm 1 mps 686 mmHg 30%
    03:00 +18°C° 0 mm 1 mps 685 mmHg 32%
    04:00 +18°C° 0 mm 1 mps 685 mmHg 33%
    05:00 +16°C° 0 mm 1 mps 685 mmHg 33%
    06:00 +16°C° 0 mm 1 mps 686 mmHg 33%
    07:00 +16°C° 0 mm 1 mps 686 mmHg 33%
    08:00 +19°C° 0 mm 2 mps 687 mmHg 28%
    09:00 +21°C° 0 mm 2 mps 688 mmHg 23%
    10:00 +25°C° 0 mm 2 mps 689 mmHg 18%
    11:00 +27°C° 0 mm 2 mps 688 mmHg 16%
    12:00 +29°C° 0 mm 2 mps 688 mmHg 15%
    13:00 +31°C° 0 mm 2 mps 688 mmHg 13%
    14:00 +31°C° 0 mm 2 mps 687 mmHg 13%
    15:00 +32°C° 0 mm 2 mps 686 mmHg 13%
    16:00 +32°C° 0 mm 2 mps 686 mmHg 13%
    17:00 +29°C° 0 mm 2 mps 686 mmHg 15%
    18:00 +27°C° 0 mm 2 mps 685 mmHg 17%
    19:00 +25°C° 0 mm 2 mps 685 mmHg 20%
    20:00 +24°C° 0 mm 1 mps 686 mmHg 21%
    21:00 +23°C° 0 mm 1 mps 686 mmHg 22%
    22:00 +22°C° 0 mm 1 mps 686 mmHg 23%
    23:00 +21°C° 0 mm 1 mps 686 mmHg 24%

    20 December, Thursday

    Time Temperature Precipitation Wind Pressure Humidity
    00:00 +20°C° 0 mm 1 mps 686 mmHg 25%
    01:00 +20°C° 0 mm 1 mps 686 mmHg 26%
    02:00 +19°C° 0 mm 1 mps 685 mmHg 27%
    03:00 +19°C° 0 mm 1 mps 685 mmHg 28%
    04:00 +18°C° 0 mm 1 mps 685 mmHg 29%
    05:00 +18°C° 0 mm 1 mps 685 mmHg 30%
    06:00 +16°C° 0 mm 1 mps 686 mmHg 30%
    07:00 +16°C° 0 mm 1 mps 686 mmHg 31%
    08:00 +20°C° 0 mm 1 mps 687 mmHg 26%
    09:00 +23°C° 0 mm 2 mps 688 mmHg 22%
    10:00 +26°C° 0 mm 2 mps 688 mmHg 17%
    11:00 +28°C° 0 mm 2 mps 688 mmHg 16%
    12:00 +30°C° 0 mm 2 mps 688 mmHg 14%
    13:00 +32°C° 0 mm 2 mps 687 mmHg 13%
    14:00 +32°C° 0 mm 2 mps 687 mmHg 13%
    15:00 +32°C° 0 mm 2 mps 686 mmHg 13%
    16:00 +32°C° 0 mm 2 mps 686 mmHg 13%
    17:00 +30°C° 0 mm 2 mps 686 mmHg 15%
    18:00 +28°C° 0 mm 2 mps 685 mmHg 17%
    19:00 +25°C° 0 mm 2 mps 685 mmHg 19%
    20:00 +24°C° 0 mm 2 mps 686 mmHg 20%
    21:00 +23°C° 0 mm 2 mps 686 mmHg 21%
    22:00 +22°C° 0 mm 1 mps 686 mmHg 23%
    23:00 +21°C° 0 mm 1 mps 686 mmHg 24%

    21 December, Friday

    Time Temperature Precipitation Wind Pressure Humidity
    00:00 +21°C° 0 mm 1 mps 686 mmHg 25%
    01:00 +20°C° 0 mm 1 mps 686 mmHg 26%
    02:00 +19°C° 0 mm 1 mps 685 mmHg 27%
    03:00 +19°C° 0 mm 1 mps 685 mmHg 28%
    04:00 +18°C° 0 mm 1 mps 685 mmHg 30%
    05:00 +18°C° 0 mm 1 mps 685 mmHg 30%
    06:00 +18°C° 0 mm 1 mps 685 mmHg 31%
    07:00 +16°C° 0 mm 1 mps 686 mmHg 32%
    08:00 +19°C° 0 mm 2 mps 687 mmHg 27%
    09:00 +23°C° 0 mm 2 mps 687 mmHg 23%
    10:00 +26°C° 0 mm 2 mps 688 mmHg 18%
    11:00 +27°C° 0 mm 2 mps 688 mmHg 16%
    12:00 +29°C° 0 mm 2 mps 687 mmHg 15%
    13:00 +31°C° 0 mm 3 mps 687 mmHg 13%
    14:00 +31°C° 0 mm 3 mps 686 mmHg 13%
    15:00 +31°C° 0 mm 3 mps 686 mmHg 13%
    16:00 +33°C° 0 mm 3 mps 685 mmHg 13%
    17:00 +29°C° 0 mm 2 mps 685 mmHg 15%
    18:00 +27°C° 0 mm 2 mps 685 mmHg 18%
    19:00 +25°C° 0 mm 2 mps 685 mmHg 20%
    20:00 +23°C° 0 mm 2 mps 685 mmHg 21%
    21:00 +21°C° 0 mm 2 mps 686 mmHg 23%
    22:00 +20°C° 0 mm 2 mps 686 mmHg 24%
    23:00 +20°C° 0 mm 2 mps 685 mmHg 25%
    Show more